Coulter Field, Bryan, TX

1:47 PM CST on November 13, 2019 (GMT -0600)
Coulter

Weather History for KCFD - October, 2019

Change the Weather History Date:

Monday, October 21, 2019

  Actual Average (WUND) Record (WUND)
Temperature  
Mean Temperature 70 °F -  
Max Temperature 81 °F - - (-1)
Min Temperature 58 °F - - (-1)
Cooling Degree Days 5    
Growing Degree Days 20 (Base 50)    
Moisture  
Dew Point 55 °F    
Average Humidity 61    
Maximum Humidity 100    
Minimum Humidity 25    
Precipitation  
Precipitation 0.19 in - - ()
Sea Level Pressure  
Sea Level Pressure 29.87 in    
Wind  
Wind Speed 9 mph (North)    
Max Wind Speed 16 mph    
Max Gust Speed 25 mph    
Visibility 10 miles    
Events Rain , Thunderstorm    
Averages and records for this station are not official NWS values.
T = Trace of Precipitation, MM = Missing Value Source: NWS Daily Summary

Daily Weather History Graph

Daily Weather History Graph

Search for Another Location

Airport or City:

Astronomy

Oct. 21, 2019 Rise Set
Actual Time 7:31 AM CDT 6:47 PM CDT
Civil Twilight 7:07 AM CDT 7:12 PM CDT
Nautical Twilight 6:39 AM CDT 7:40 PM CDT
Astronomical Twilight 6:11 AM CDT 8:08 PM CDT
Moon 12:14 AM CDT (10/21) 2:37 PM CDT (10/21)
Length of Visible Light 12h 04m
Length of Day
11h 15m
Waning Gibbous, 48% of the Moon is Illuminated
Oct 21
Waning Gibbous
Oct 27
New
Nov 4
First Quarter
Nov 12
Full
Nov 19
Last Quarter

Hourly Weather History & Observations

Time (CDT) Temp. Heat Index Dew Point Humidity Pressure Visibility Wind Dir Wind Speed Gust Speed Precip Events Conditions
12:15 AM 81.5 °F 89.7 °F 77.9 °F 89% 29.72 in 10.0 mi South 11.5 mph 23.0 mph N/A   Overcast
12:35 AM 81.5 °F 89.7 °F 78.1 °F 89% 29.72 in 10.0 mi South 13.8 mph 23.0 mph N/A   Overcast
12:55 AM 81.3 °F 89.4 °F 78.3 °F 90% 29.71 in 10.0 mi South 12.7 mph 20.7 mph N/A   Overcast
1:15 AM 81.0 °F 88.8 °F 78.4 °F 92% 29.70 in 10.0 mi South 11.5 mph 20.7 mph N/A   Overcast
1:35 AM 81.3 °F 89.4 °F 78.3 °F 90% 29.69 in 10.0 mi South 13.8 mph 20.7 mph N/A   Overcast
1:55 AM 81.1 °F 89.1 °F 78.4 °F 91% 29.71 in 10.0 mi South 12.7 mph 20.7 mph N/A   Overcast
2:15 AM 81.0 °F 88.8 °F 78.4 °F 92% 29.72 in 10.0 mi South 11.5 mph 17.3 mph N/A   Overcast
2:35 AM 81.5 °F 89.5 °F 77.5 °F 88% 29.72 in 10.0 mi SSW 12.7 mph 23.0 mph N/A   Overcast
2:55 AM 81.5 °F 89.5 °F 77.5 °F 88% 29.71 in 10.0 mi South 10.4 mph 17.3 mph N/A   Overcast
3:15 AM 81.5 °F 89.7 °F 78.1 °F 89% 29.72 in 10.0 mi SSW 10.4 mph 16.1 mph N/A   Overcast
3:35 AM 81.0 °F 89.0 °F 78.8 °F 93% 29.71 in 10.0 mi South 5.8 mph - N/A   Overcast
3:55 AM 80.6 °F 88.5 °F 79.5 °F 96% 29.70 in 10.0 mi South 4.6 mph - N/A   Overcast
4:15 AM 80.6 °F 88.7 °F 79.7 °F 97% 29.71 in 10.0 mi SW 4.6 mph - N/A   Overcast
4:35 AM 71.2 °F - 70.9 °F 99% 29.77 in 5.0 mi NW 16.1 mph 25.3 mph 0.03 in Rain Heavy Rain
4:55 AM 68.9 °F - 68.9 °F 100% 29.76 in 7.0 mi NW 12.7 mph 19.6 mph 0.18 in Rain , Thunderstorm Light Thunderstorms and Rain
5:15 AM 68.4 °F - 68.4 °F 100% 29.75 in 10.0 mi NNW 9.2 mph - N/A   Drizzle
5:35 AM 68.4 °F - 68.4 °F 100% 29.77 in 10.0 mi NNW 5.8 mph - 0.01 in   Light Drizzle
5:55 AM 68.4 °F - 68.4 °F 100% 29.76 in 10.0 mi ENE 3.5 mph - 0.01 in   Mostly Cloudy
6:15 AM 68.2 °F - 68.2 °F 100% 29.79 in 10.0 mi Calm Calm - N/A   Overcast
6:35 AM 68.4 °F - 68.4 °F 100% 29.80 in 10.0 mi NW 4.6 mph - N/A   Mostly Cloudy
6:55 AM 68.0 °F - 68.0 °F 100% 29.79 in 10.0 mi NNW 3.5 mph - N/A   Mostly Cloudy
7:15 AM 67.5 °F - 67.5 °F 100% 29.80 in 10.0 mi NNW 4.6 mph - N/A   Scattered Clouds
7:35 AM 67.1 °F - 67.1 °F 100% 29.81 in 10.0 mi NW 4.6 mph - N/A   Clear
7:55 AM 66.7 °F - 65.8 °F 97% 29.82 in 10.0 mi NNW 10.4 mph - N/A   Clear
8:15 AM 66.2 °F - 63.9 °F 92% 29.83 in 10.0 mi NNW 5.8 mph - N/A   Scattered Clouds
8:35 AM 65.3 °F - 63.1 °F 93% 29.85 in 10.0 mi NW 8.1 mph - N/A   Scattered Clouds
8:55 AM 65.5 °F - 61.3 °F 86% 29.86 in 10.0 mi NNW 8.1 mph - N/A   Scattered Clouds
9:15 AM 66.2 °F - 60.8 °F 83% 29.87 in 10.0 mi NNW 9.2 mph - N/A   Scattered Clouds
9:35 AM 67.3 °F - 56.5 °F 68% 29.88 in 10.0 mi North 15.0 mph 23.0 mph N/A   Clear
9:55 AM 68.2 °F - 55.2 °F 63% 29.90 in 10.0 mi North 15.0 mph 20.7 mph N/A   Clear
10:15 AM 69.3 °F - 52.0 °F 54% 29.90 in 10.0 mi North 13.8 mph 20.7 mph N/A   Clear
10:35 AM 70.5 °F - 48.2 °F 45% 29.91 in 10.0 mi North 15.0 mph 20.7 mph N/A   Clear
10:55 AM 71.1 °F - 47.1 °F 42% 29.91 in 10.0 mi North 12.7 mph 23.0 mph N/A   Clear
11:15 AM 72.0 °F - 46.4 °F 40% 29.92 in 10.0 mi North 15.0 mph 21.9 mph N/A   Clear
11:35 AM 73.0 °F - 46.6 °F 39% 29.92 in 10.0 mi North 12.7 mph 19.6 mph N/A   Clear
11:55 AM 74.1 °F - 45.3 °F 36% 29.93 in 10.0 mi North 11.5 mph 17.3 mph N/A   Clear
12:15 PM 74.7 °F - 45.1 °F 35% 29.92 in 10.0 mi NNE 11.5 mph 16.1 mph N/A   Clear
12:35 PM 75.4 °F - 45.9 °F 35% 29.91 in 10.0 mi NNE 8.1 mph - N/A   Clear
12:55 PM 76.5 °F - 45.1 °F 33% 29.91 in 10.0 mi NE 11.5 mph - N/A   Clear
1:15 PM 76.6 °F - 45.0 °F 32% 29.91 in 10.0 mi NNE 6.9 mph - N/A   Clear
1:35 PM 77.0 °F - 43.0 °F 30% 29.90 in 10.0 mi NE 10.4 mph - N/A   Clear
1:55 PM 78.1 °F - 44.1 °F 30% 29.90 in 10.0 mi North 6.9 mph - N/A   Clear
2:15 PM 77.5 °F - 42.6 °F 29% 29.89 in 10.0 mi North 5.8 mph - N/A   Clear
2:35 PM 78.1 °F - 41.4 °F 27% 29.89 in 10.0 mi North 8.1 mph - N/A   Clear
2:55 PM 78.4 °F - 42.6 °F 28% 29.88 in 10.0 mi North 10.4 mph 16.1 mph N/A   Clear
3:15 PM 79.0 °F - 40.8 °F 26% 29.89 in 10.0 mi North 5.8 mph - N/A   Clear
3:35 PM 79.0 °F - 41.4 °F 26% 29.89 in 10.0 mi North 11.5 mph - N/A   Clear
3:55 PM 79.2 °F - 41.0 °F 26% 29.90 in 10.0 mi NNW 5.8 mph - N/A   Clear
4:15 PM 79.0 °F - 41.4 °F 26% 29.90 in 10.0 mi NNW 8.1 mph - N/A   Clear
4:35 PM 78.8 °F - 40.3 °F 25% 29.89 in 10.0 mi NNE 5.8 mph - N/A   Clear
4:55 PM 78.6 °F - 42.1 °F 27% 29.89 in 10.0 mi North 9.2 mph - N/A   Clear
5:15 PM 77.9 °F - 41.0 °F 27% 29.88 in 10.0 mi North 8.1 mph - N/A   Clear
5:35 PM 77.2 °F - 39.2 °F 26% 29.88 in 10.0 mi NNW 6.9 mph - N/A   Clear
5:55 PM 76.1 °F - 40.8 °F 28% 29.89 in 10.0 mi NNW 5.8 mph - N/A   Clear
6:15 PM 74.1 °F - 41.2 °F 31% 29.90 in 10.0 mi North 4.6 mph - N/A   Clear
6:35 PM 72.7 °F - 42.3 °F 33% 29.91 in 10.0 mi NNW 4.6 mph - N/A   Clear
6:55 PM 71.6 °F - 41.7 °F 34% 29.93 in 10.0 mi NNW 3.5 mph - N/A   Clear
7:15 PM 70.5 °F - 42.1 °F 36% 29.95 in 10.0 mi North 3.5 mph - N/A   Clear
7:35 PM 68.9 °F - 43.0 °F 39% 29.96 in 10.0 mi North 3.5 mph - N/A   Clear
7:55 PM 67.8 °F - 43.2 °F 41% 29.98 in 10.0 mi North 3.5 mph - N/A   Clear
8:15 PM 66.9 °F - 43.3 °F 42% 30.00 in 10.0 mi North 5.8 mph - N/A   Clear
8:35 PM 65.8 °F - 43.7 °F 45% 30.01 in 10.0 mi North 3.5 mph - N/A   Clear
8:55 PM 65.3 °F - 43.5 °F 45% 30.03 in 10.0 mi North 4.6 mph - N/A   Clear
9:15 PM 64.6 °F - 44.1 °F 47% 30.05 in 10.0 mi North 4.6 mph - N/A   Clear
9:35 PM 63.5 °F - 44.4 °F 50% 30.05 in 10.0 mi North 4.6 mph - N/A   Clear
9:55 PM 62.6 °F - 44.6 °F 52% 30.06 in 10.0 mi North 6.9 mph - N/A   Clear
10:15 PM 61.0 °F - 45.7 °F 57% 30.07 in 10.0 mi NNE 3.5 mph - N/A   Clear
10:35 PM 60.8 °F - 45.7 °F 57% 30.08 in 10.0 mi NNE 4.6 mph - N/A   Clear
10:55 PM 60.8 °F - 45.5 °F 57% 30.09 in 10.0 mi NE 3.5 mph - N/A   Clear
11:15 PM 59.9 °F - 45.5 °F 59% 30.08 in 10.0 mi North 4.6 mph - N/A   Clear
11:35 PM 59.4 °F - 45.7 °F 61% 30.09 in 10.0 mi North 3.5 mph - N/A   Clear
11:55 PM 58.6 °F - 45.7 °F 62% 30.09 in 10.0 mi North 3.5 mph - N/A   Clear